Tracking 25710 objects as of 5-Jul-2022
HD Live streaming from Space Station
objects crossing your sky now

FLOCK 4A 13

Track FLOCK 4A 13 now!
10-day predictions
FLOCK 4A 13 is classified as:


NORAD ID: 44102
Int'l Code: 2019-018AA
Perigee: 466.4 km
Apogee: 481.7 km
Inclination: 97.3 °
Period: 93.9 minutes
Semi major axis: 6845 km
RCS: Unknown
Launch date: April 1, 2019
Source: United States (US)
Launch site: SRIHARIKOTA (SRI)
aabbcc
Your satellite tracking list
Your tracking list is empty




NASA's NSSDC Master Catalog

Two Line Element Set (TLE):
1 44102U 19018AA  22185.74944794  .00013789  00000-0  43422-3 0  9992
2 44102  97.3150 246.1994 0011170  74.1503 286.0970 15.32975268181362
Source of the keplerian elements: AFSPC